Time,TemperatureF,DewpointF,PressureIn,WindDirection,WindDirectionDegrees,WindSpeedMPH,WindSpeedGustMPH,Humidity,HourlyPrecipIn,Conditions,Clouds,dailyrainin,SolarRadiationWatts/m^2,SoftwareType,DateUTC
2013-03-28 00:04:00,54.6,52.0,30.07,ESE,109,0.0,-999.0,89,-99.99,,,0.00,0,weatherlink.com 1.10,2013-03-28 07:04:00,
2013-03-28 00:19:00,54.4,51.0,30.07,ESE,121,0.0,-999.0,88,-99.99,,,0.00,0,weatherlink.com 1.10,2013-03-28 07:19:00,
2013-03-28 00:34:00,54.5,51.0,30.07,ESE,121,0.0,-999.0,89,-99.99,,,0.00,0,weatherlink.com 1.10,2013-03-28 07:34:00,
2013-03-28 00:49:00,54.5,51.0,30.07,ESE,121,0.0,-999.0,89,-99.99,,,0.00,0,weatherlink.com 1.10,2013-03-28 07:49:00,
2013-03-28 01:04:00,54.4,51.0,30.07,ENE,70,3.0,-999.0,89,-99.99,,,0.00,0,weatherlink.com 1.10,2013-03-28 08:04:00,
2013-03-28 01:19:00,54.2,51.0,30.07,ENE,77,0.0,-999.0,89,-99.99,,,0.00,0,weatherlink.com 1.10,2013-03-28 08:19:00,
2013-03-28 01:34:00,54.1,51.0,30.07,NE,39,0.0,-999.0,89,-99.99,,,0.00,0,weatherlink.com 1.10,2013-03-28 08:34:00,
2013-03-28 01:49:00,54.1,51.0,30.07,NE,46,0.0,-999.0,89,-99.99,,,0.00,0,weatherlink.com 1.10,2013-03-28 08:49:00,
2013-03-28 02:04:00,54.1,51.0,30.06,NE,49,0.0,-999.0,89,-99.99,,,0.00,0,weatherlink.com 1.10,2013-03-28 09:04:00,
2013-03-28 02:19:00,54.1,51.0,30.06,NE,49,0.0,-999.0,89,-99.99,,,0.00,0,weatherlink.com 1.10,2013-03-28 09:19:00,
2013-03-28 02:34:00,53.9,51.0,30.06,NE,49,0.0,-999.0,89,-99.99,,,0.00,0,weatherlink.com 1.10,2013-03-28 09:34:00,
2013-03-28 02:49:00,53.8,51.0,30.05,NE,49,0.0,-999.0,89,-99.99,,,0.00,0,weatherlink.com 1.10,2013-03-28 09:49:00,
2013-03-28 03:04:00,53.7,51.0,30.05,NE,50,0.0,-999.0,89,-99.99,,,0.00,0,weatherlink.com 1.10,2013-03-28 10:04:00,
2013-03-28 03:19:00,53.6,51.0,30.05,NNE,22,0.0,-999.0,89,-99.99,,,0.00,0,weatherlink.com 1.10,2013-03-28 10:19:00,
2013-03-28 03:34:00,53.5,50.0,30.05,NNE,22,0.0,-999.0,89,-99.99,,,0.00,0,weatherlink.com 1.10,2013-03-28 10:34:00,
2013-03-28 03:49:00,53.4,50.0,30.05,NE,49,1.0,-999.0,89,-99.99,,,0.00,0,weatherlink.com 1.10,2013-03-28 10:49:00,
2013-03-28 04:05:00,53.2,50.0,30.04,ENE,71,2.0,-999.0,89,-99.99,,,0.00,0,weatherlink.com 1.10,2013-03-28 11:05:00,
2013-03-28 04:20:00,52.9,50.0,30.05,East,79,0.0,-999.0,89,-99.99,,,0.00,0,weatherlink.com 1.10,2013-03-28 11:20:00,
2013-03-28 04:35:00,52.8,50.0,30.05,East,80,0.0,-999.0,89,-99.99,,,0.00,0,weatherlink.com 1.10,2013-03-28 11:35:00,
2013-03-28 04:50:00,52.7,50.0,30.05,East,89,1.0,-999.0,90,-99.99,,,0.00,0,weatherlink.com 1.10,2013-03-28 11:50:00,
2013-03-28 05:05:00,52.7,50.0,30.05,East,84,0.0,-999.0,90,-99.99,,,0.00,0,weatherlink.com 1.10,2013-03-28 12:05:00,
2013-03-28 05:20:00,52.7,50.0,30.05,East,84,0.0,-999.0,90,-99.99,,,0.00,0,weatherlink.com 1.10,2013-03-28 12:20:00,
2013-03-28 05:35:00,52.4,50.0,30.05,ENE,72,0.0,-999.0,90,-99.99,,,0.00,0,weatherlink.com 1.10,2013-03-28 12:35:00,
2013-03-28 05:50:00,52.3,50.0,30.05,ENE,61,0.0,-999.0,90,-99.99,,,0.00,0,weatherlink.com 1.10,2013-03-28 12:50:00,
2013-03-28 06:05:00,52.2,50.0,30.05,ENE,63,0.0,-999.0,91,-99.99,,,0.00,0,weatherlink.com 1.10,2013-03-28 13:05:00,
2013-03-28 06:20:00,52.1,50.0,30.05,ENE,65,0.0,-999.0,91,-99.99,,,0.00,0,weatherlink.com 1.10,2013-03-28 13:20:00,
2013-03-28 06:35:00,51.6,49.0,30.05,East,98,0.0,-999.0,91,-99.99,,,0.00,0,weatherlink.com 1.10,2013-03-28 13:35:00,
2013-03-28 06:50:00,51.4,49.0,30.05,East,95,1.0,-999.0,91,-99.99,,,0.00,7,weatherlink.com 1.10,2013-03-28 13:50:00,
2013-03-28 07:05:00,51.4,49.0,30.05,East,99,0.0,-999.0,91,-99.99,,,0.00,19,weatherlink.com 1.10,2013-03-28 14:05:00,
2013-03-28 07:20:00,51.3,49.0,30.05,East,99,3.0,-999.0,91,-99.99,,,0.00,28,weatherlink.com 1.10,2013-03-28 14:20:00,
2013-03-28 07:35:00,51.3,49.0,30.06,ESE,103,0.0,-999.0,91,-99.99,,,0.00,37,weatherlink.com 1.10,2013-03-28 14:35:00,
2013-03-28 07:50:00,51.3,49.0,30.07,ESE,103,0.0,-999.0,91,-99.99,,,0.00,95,weatherlink.com 1.10,2013-03-28 14:50:00,
2013-03-28 08:05:00,51.7,49.0,30.08,East,91,0.0,-999.0,91,-99.99,,,0.00,149,weatherlink.com 1.10,2013-03-28 15:05:00,
2013-03-28 08:20:00,52.4,50.0,30.08,East,98,0.0,-999.0,91,-99.99,,,0.00,162,weatherlink.com 1.10,2013-03-28 15:20:00,
2013-03-28 08:35:00,52.9,50.0,30.09,East,101,0.0,-999.0,90,-99.99,,,0.00,141,weatherlink.com 1.10,2013-03-28 15:35:00,
2013-03-28 08:50:00,53.5,50.0,30.08,East,85,2.0,-999.0,89,-99.99,,,0.00,218,weatherlink.com 1.10,2013-03-28 15:50:00,
2013-03-28 09:05:00,54.4,51.0,30.09,East,83,0.0,-999.0,89,-99.99,,,0.00,387,weatherlink.com 1.10,2013-03-28 16:05:00,
2013-03-28 09:20:00,55.5,52.0,30.09,ESE,105,0.0,-999.0,88,-99.99,,,0.00,274,weatherlink.com 1.10,2013-03-28 16:20:00,
2013-03-28 09:35:00,56.0,52.0,30.09,WSW,237,2.0,-999.0,87,-99.99,,,0.00,388,weatherlink.com 1.10,2013-03-28 16:35:00,
2013-03-28 09:50:00,57.5,53.0,30.09,South,173,1.0,-999.0,86,-99.99,,,0.00,494,weatherlink.com 1.10,2013-03-28 16:50:00,
2013-03-28 10:05:00,59.0,54.0,30.09,SSW,200,0.0,-999.0,83,-99.99,,,0.00,487,weatherlink.com 1.10,2013-03-28 17:05:00,
2013-03-28 10:20:00,60.5,54.0,30.09,SSW,211,0.0,-999.0,79,-99.99,,,0.00,536,weatherlink.com 1.10,2013-03-28 17:20:00,
2013-03-28 10:35:00,62.5,54.0,30.09,ESE,116,0.0,-999.0,74,-99.99,,,0.00,754,weatherlink.com 1.10,2013-03-28 17:35:00,
2013-03-28 10:50:00,64.2,54.0,30.09,SW,215,0.0,-999.0,69,-99.99,,,0.00,761,weatherlink.com 1.10,2013-03-28 17:50:00,
2013-03-28 11:06:00,66.3,54.0,30.09,NW,314,0.0,-999.0,64,-99.99,,,0.00,768,weatherlink.com 1.10,2013-03-28 18:06:00,
2013-03-28 11:21:00,67.7,54.0,30.08,NE,41,0.0,-999.0,62,-99.99,,,0.00,810,weatherlink.com 1.10,2013-03-28 18:21:00,
2013-03-28 11:36:00,68.5,53.0,30.07,SW,224,1.0,-999.0,59,-99.99,,,0.00,777,weatherlink.com 1.10,2013-03-28 18:36:00,
2013-03-28 12:21:00,72.9,54.0,30.05,WNW,291,3.0,-999.0,51,-99.99,,,0.00,911,weatherlink.com 1.10,2013-03-28 19:21:00,
2013-03-28 12:36:00,74.6,54.0,30.05,WNW,294,2.0,-999.0,48,-99.99,,,0.00,673,weatherlink.com 1.10,2013-03-28 19:36:00,
2013-03-28 12:51:00,73.7,53.0,30.05,NW,321,1.0,-999.0,49,-99.99,,,0.00,707,weatherlink.com 1.10,2013-03-28 19:51:00,
2013-03-28 13:21:00,74.9,54.0,30.04,WNW,286,1.0,-999.0,48,-99.99,,,0.00,796,weatherlink.com 1.10,2013-03-28 20:21:00,
2013-03-28 13:36:00,75.3,54.0,30.04,WSW,254,1.0,-999.0,48,-99.99,,,0.00,622,weatherlink.com 1.10,2013-03-28 20:36:00,
2013-03-28 13:51:00,75.8,55.0,30.04,WNW,282,0.0,-999.0,49,-99.99,,,0.00,842,weatherlink.com 1.10,2013-03-28 20:51:00,
2013-03-28 14:06:00,76.0,56.0,30.04,WSW,255,5.0,-999.0,50,-99.99,,,0.00,821,weatherlink.com 1.10,2013-03-28 21:06:00,
2013-03-28 14:21:00,75.7,54.0,30.03,SW,230,1.0,-999.0,47,-99.99,,,0.00,807,weatherlink.com 1.10,2013-03-28 21:21:00,
2013-03-28 14:36:00,74.7,53.0,30.03,SW,235,0.0,-999.0,47,-99.99,,,0.00,763,weatherlink.com 1.10,2013-03-28 21:36:00,
2013-03-28 14:51:00,74.1,53.0,30.03,West,268,3.0,-999.0,48,-99.99,,,0.00,754,weatherlink.com 1.10,2013-03-28 21:51:00,
2013-03-28 15:06:00,74.2,54.0,30.02,South,191,6.0,-999.0,49,-99.99,,,0.00,696,weatherlink.com 1.10,2013-03-28 22:06:00,
2013-03-28 15:21:00,74.8,54.0,30.02,NW,312,0.0,-999.0,49,-99.99,,,0.00,652,weatherlink.com 1.10,2013-03-28 22:21:00,
2013-03-28 15:51:00,74.2,55.0,30.02,WSW,251,0.0,-999.0,51,-99.99,,,0.00,503,weatherlink.com 1.10,2013-03-28 22:51:00,
2013-03-28 16:06:00,74.1,54.0,30.02,SSW,213,0.0,-999.0,50,-99.99,,,0.00,517,weatherlink.com 1.10,2013-03-28 23:06:00,
2013-03-28 16:21:00,74.7,55.0,30.02,WNW,302,2.0,-999.0,51,-99.99,,,0.00,452,weatherlink.com 1.10,2013-03-28 23:21:00,
2013-03-28 16:36:00,74.6,56.0,30.02,WNW,288,2.0,-999.0,52,-99.99,,,0.00,468,weatherlink.com 1.10,2013-03-28 23:36:00,
2013-03-28 16:51:00,74.6,55.0,30.03,NW,309,3.0,-999.0,51,-99.99,,,0.00,420,weatherlink.com 1.10,2013-03-28 23:51:00,
2013-03-28 17:06:00,73.1,55.0,30.03,West,268,1.0,-999.0,53,-99.99,,,0.00,323,weatherlink.com 1.10,2013-03-29 00:06:00,
2013-03-28 17:36:00,71.0,56.0,30.02,NW,311,0.0,-999.0,59,-99.99,,,0.00,209,weatherlink.com 1.10,2013-03-29 00:36:00,
2013-03-28 17:51:00,70.5,55.0,30.02,WSW,257,5.0,-999.0,59,-99.99,,,0.00,195,weatherlink.com 1.10,2013-03-29 00:51:00,
2013-03-28 18:06:00,70.0,55.0,30.02,WNW,295,0.0,-999.0,60,-99.99,,,0.00,65,weatherlink.com 1.10,2013-03-29 01:06:00,
2013-03-28 18:22:00,69.9,55.0,30.02,WNW,297,0.0,-999.0,60,-99.99,,,0.00,42,weatherlink.com 1.10,2013-03-29 01:22:00,
2013-03-28 18:51:00,69.3,55.0,30.01,WNW,297,0.0,-999.0,60,-99.99,,,0.00,19,weatherlink.com 1.10,2013-03-29 01:51:00,
2013-03-28 19:06:00,68.5,54.0,30.01,WNW,297,0.0,-999.0,60,-99.99,,,0.00,0,weatherlink.com 1.10,2013-03-29 02:06:00,
2013-03-28 19:36:00,67.0,55.0,30.02,WNW,297,0.0,-999.0,65,-99.99,,,0.00,0,weatherlink.com 1.10,2013-03-29 02:36:00,
2013-03-28 19:51:00,66.3,54.0,30.02,WNW,297,0.0,-999.0,65,-99.99,,,0.00,0,weatherlink.com 1.10,2013-03-29 02:51:00,
2013-03-28 20:06:00,65.4,53.0,30.02,WNW,297,0.0,-999.0,65,-99.99,,,0.00,0,weatherlink.com 1.10,2013-03-29 03:06:00,
2013-03-28 20:21:00,64.5,53.0,30.03,WSW,250,0.0,-999.0,66,-99.99,,,0.00,0,weatherlink.com 1.10,2013-03-29 03:21:00,
2013-03-28 20:37:00,63.3,53.0,30.03,WSW,250,0.0,-999.0,68,-99.99,,,0.00,0,weatherlink.com 1.10,2013-03-29 03:37:00,
2013-03-28 20:52:00,62.3,53.0,30.04,WSW,250,0.0,-999.0,72,-99.99,,,0.00,0,weatherlink.com 1.10,2013-03-29 03:52:00,
2013-03-28 21:06:00,61.2,53.0,30.05,WSW,250,0.0,-999.0,75,-99.99,,,0.00,0,weatherlink.com 1.10,2013-03-29 04:06:00,
2013-03-28 21:22:00,60.2,53.0,30.05,SSE,165,0.0,-999.0,78,-99.99,,,0.00,0,weatherlink.com 1.10,2013-03-29 04:22:00,
2013-03-28 21:37:00,59.9,54.0,30.07,South,169,0.0,-999.0,80,-99.99,,,0.00,0,weatherlink.com 1.10,2013-03-29 04:37:00,
2013-03-28 21:52:00,59.4,54.0,30.07,SE,136,0.0,-999.0,82,-99.99,,,0.00,0,weatherlink.com 1.10,2013-03-29 04:52:00,
2013-03-28 22:07:00,58.9,54.0,30.08,ESE,123,0.0,-999.0,84,-99.99,,,0.00,0,weatherlink.com 1.10,2013-03-29 05:07:00,
2013-03-28 22:22:00,58.4,54.0,30.09,SSE,153,1.0,-999.0,85,-99.99,,,0.00,0,weatherlink.com 1.10,2013-03-29 05:22:00,
2013-03-28 22:37:00,57.9,54.0,30.09,SSE,150,0.0,-999.0,87,-99.99,,,0.00,0,weatherlink.com 1.10,2013-03-29 05:37:00,
2013-03-28 22:52:00,57.7,54.0,30.09,East,80,0.0,-999.0,88,-99.99,,,0.00,0,weatherlink.com 1.10,2013-03-29 05:52:00,
2013-03-28 23:07:00,57.8,55.0,30.09,SE,131,0.0,-999.0,89,-99.99,,,0.00,0,weatherlink.com 1.10,2013-03-29 06:07:00,
2013-03-28 23:22:00,57.7,55.0,30.09,SSE,165,2.0,-999.0,89,-99.99,,,0.00,0,weatherlink.com 1.10,2013-03-29 06:22:00,
2013-03-28 23:37:00,57.4,54.0,30.09,SE,140,0.0,-999.0,89,-99.99,,,0.00,0,weatherlink.com 1.10,2013-03-29 06:37:00,
2013-03-28 23:52:00,57.3,54.0,30.09,SE,141,0.0,-999.0,89,-99.99,,,0.00,0,weatherlink.com 1.10,2013-03-29 06:52:00,